Hourly Weather Abaigar

Today, 25 November, Wednesday

Time Temperature Precipitation Wind Pressure Humidity
00:00 +6°C° 0 mm 1 mps 707 mmHg 69%
01:00 +6°C° 0 mm 1 mps 706 mmHg 71%
02:00 +4°C° 0 mm 2 mps 706 mmHg 74%
03:00 +4°C° 0 mm 2 mps 705 mmHg 76%
04:00 +4°C° 0 mm 2 mps 705 mmHg 80%
05:00 +3°C° 0 mm 2 mps 705 mmHg 84%
06:00 +3°C° 0 mm 2 mps 705 mmHg 88%
07:00 +4°C° 0 mm 2 mps 706 mmHg 87%
08:00 +5°C° 0 mm 2 mps 706 mmHg 86%
09:00 +5°C° 0 mm 2 mps 706 mmHg 84%
10:00 +7°C° 0 mm 3 mps 706 mmHg 77%
11:00 +7°C° 0 mm 4 mps 706 mmHg 70%
12:00 +10°C° 0 mm 4 mps 705 mmHg 63%
13:00 +9°C° 0 mm 5 mps 705 mmHg 62%
14:00 +10°C° 0 mm 5 mps 704 mmHg 60%
15:00 +10°C° 0 mm 6 mps 704 mmHg 59%
16:00 +9°C° 0 mm 5 mps 704 mmHg 66%
17:00 +8°C° 0 mm 5 mps 704 mmHg 73%
18:00 +6°C° 0 mm 4 mps 704 mmHg 80%
19:00 +6°C° 0 mm 4 mps 704 mmHg 81%
20:00 +6°C° 0 mm 4 mps 704 mmHg 83%
21:00 +6°C° 0 mm 4 mps 704 mmHg 85%
22:00 +6°C° 0 mm 4 mps 704 mmHg 87%
23:00 +6°C° 0 mm 4 mps 704 mmHg 88%

Tomorrow, 26 November, Thursday

Time Temperature Precipitation Wind Pressure Humidity
00:00 +6°C° 0 mm 5 mps 704 mmHg 90%
01:00 +6°C° 0 mm 5 mps 704 mmHg 91%
02:00 +6°C° 0 mm 5 mps 704 mmHg 93%
03:00 +6°C° 0 mm 5 mps 704 mmHg 94%
04:00 +6°C° 0 mm 5 mps 705 mmHg 93%
05:00 +6°C° 0 mm 5 mps 705 mmHg 92%
06:00 +7°C° 0 mm 5 mps 705 mmHg 91%
07:00 +7°C° 0 mm 6 mps 705 mmHg 90%
08:00 +7°C° 0 mm 6 mps 705 mmHg 88%
09:00 +8°C° 0 mm 6 mps 705 mmHg 87%
10:00 +8°C° 0 mm 6 mps 705 mmHg 84%
11:00 +9°C° 0 mm 6 mps 705 mmHg 82%
12:00 +9°C° 0 mm 7 mps 705 mmHg 79%
13:00 +9°C° 0.1 mm 6 mps 705 mmHg 82%
14:00 +9°C° 0.1 mm 5 mps 705 mmHg 84%
15:00 +9°C° 0.1 mm 5 mps 705 mmHg 86%
16:00 +8°C° 0.2 mm 4 mps 705 mmHg 88%
17:00 +9°C° 0.2 mm 3 mps 705 mmHg 89%
18:00 +9°C° 0.2 mm 2 mps 705 mmHg 90%
19:00 +9°C° 0.1 mm 2 mps 705 mmHg 89%
20:00 +9°C° 0.1 mm 2 mps 705 mmHg 88%
21:00 +9°C° 0.1 mm 2 mps 705 mmHg 87%
22:00 +9°C° 0 mm 2 mps 705 mmHg 87%
23:00 +9°C° 0 mm 2 mps 705 mmHg 86%

Day after tomorrow, 27 November, Friday

Time Temperature Precipitation Wind Pressure Humidity
00:00 +9°C° 0 mm 2 mps 705 mmHg 85%
01:00 +9°C° 0 mm 2 mps 705 mmHg 85%
02:00 +9°C° 0 mm 2 mps 705 mmHg 84%
03:00 +9°C° 0 mm 2 mps 705 mmHg 84%
04:00 +9°C° 0.1 mm 2 mps 705 mmHg 85%
05:00 +8°C° 0.1 mm 3 mps 705 mmHg 85%
06:00 +8°C° 0.1 mm 3 mps 705 mmHg 86%
07:00 +9°C° 0.1 mm 3 mps 705 mmHg 85%
08:00 +9°C° 0.1 mm 3 mps 705 mmHg 84%
09:00 +9°C° 0.1 mm 2 mps 705 mmHg 83%
10:00 +10°C° 0 mm 3 mps 704 mmHg 77%
11:00 +11°C° 0 mm 3 mps 704 mmHg 72%
12:00 +12°C° 0 mm 3 mps 704 mmHg 66%
13:00 +12°C° 0 mm 3 mps 704 mmHg 67%
14:00 +13°C° 0 mm 2 mps 703 mmHg 67%
15:00 +13°C° 0 mm 2 mps 703 mmHg 67%
16:00 +12°C° 0 mm 2 mps 703 mmHg 73%
17:00 +11°C° 0 mm 1 mps 703 mmHg 78%
18:00 +10°C° 0 mm 1 mps 703 mmHg 83%
19:00 +10°C° 0 mm 1 mps 703 mmHg 83%
20:00 +9°C° 0 mm 1 mps 703 mmHg 84%
21:00 +9°C° 0 mm 1 mps 703 mmHg 84%
22:00 +9°C° 0 mm 1 mps 703 mmHg 85%
23:00 +9°C° 0 mm 1 mps 702 mmHg 87%

28 November, Saturday

Time Temperature Precipitation Wind Pressure Humidity
00:00 +9°C° 0 mm 1 mps 702 mmHg 88%
01:00 +8°C° 0 mm 1 mps 702 mmHg 89%
02:00 +8°C° 0 mm 1 mps 702 mmHg 90%
03:00 +8°C° 0 mm 1 mps 701 mmHg 90%
04:00 +8°C° 0 mm 1 mps 701 mmHg 90%
05:00 +8°C° 0 mm 1 mps 701 mmHg 90%
06:00 +8°C° 0 mm 1 mps 701 mmHg 90%
07:00 +8°C° 0 mm 1 mps 701 mmHg 86%
08:00 +9°C° 0 mm 1 mps 701 mmHg 83%
09:00 +10°C° 0 mm 1 mps 701 mmHg 79%
10:00 +11°C° 0 mm 1 mps 701 mmHg 72%
11:00 +13°C° 0 mm 1 mps 701 mmHg 65%
12:00 +15°C° 0 mm 1 mps 701 mmHg 58%
13:00 +15°C° 0 mm 1 mps 701 mmHg 57%
14:00 +15°C° 0 mm 2 mps 701 mmHg 57%
15:00 +15°C° 0 mm 2 mps 701 mmHg 56%
16:00 +13°C° 0 mm 2 mps 701 mmHg 63%
17:00 +11°C° 0 mm 1 mps 701 mmHg 71%
18:00 +10°C° 0 mm 1 mps 701 mmHg 79%
19:00 +9°C° 0 mm 1 mps 701 mmHg 81%
20:00 +9°C° 0 mm 1 mps 701 mmHg 83%
21:00 +8°C° 0 mm 1 mps 702 mmHg 85%
22:00 +8°C° 0 mm 1 mps 702 mmHg 85%
23:00 +8°C° 0 mm 1 mps 702 mmHg 86%

29 November, Sunday

Time Temperature Precipitation Wind Pressure Humidity
00:00 +6°C° 0 mm 0 mps 702 mmHg 87%
01:00 +6°C° 0 mm 0 mps 702 mmHg 87%
02:00 +6°C° 0 mm 0 mps 702 mmHg 87%
03:00 +6°C° 0 mm 0 mps 702 mmHg 87%
04:00 +6°C° 0 mm 0 mps 703 mmHg 86%
05:00 +5°C° 0 mm 0 mps 703 mmHg 86%
06:00 +5°C° 0 mm 0 mps 703 mmHg 86%
07:00 +6°C° 0 mm 0 mps 704 mmHg 81%
08:00 +7°C° 0 mm 0 mps 704 mmHg 77%
09:00 +8°C° 0 mm 0 mps 705 mmHg 73%
10:00 +10°C° 0 mm 0 mps 705 mmHg 68%
11:00 +12°C° 0 mm 1 mps 705 mmHg 62%
12:00 +14°C° 0 mm 1 mps 705 mmHg 56%
13:00 +14°C° 0 mm 1 mps 705 mmHg 57%
14:00 +14°C° 0 mm 1 mps 705 mmHg 57%
15:00 +14°C° 0 mm 1 mps 705 mmHg 57%
16:00 +13°C° 0 mm 1 mps 705 mmHg 64%
17:00 +11°C° 0 mm 1 mps 705 mmHg 71%
18:00 +10°C° 0 mm 1 mps 705 mmHg 78%
19:00 +9°C° 0 mm 1 mps 706 mmHg 80%
20:00 +9°C° 0 mm 1 mps 706 mmHg 81%
21:00 +8°C° 0 mm 1 mps 706 mmHg 83%
22:00 +8°C° 0 mm 1 mps 706 mmHg 84%
23:00 +8°C° 0 mm 1 mps 707 mmHg 84%

30 November, Monday

Time Temperature Precipitation Wind Pressure Humidity
00:00 +8°C° 0 mm 1 mps 707 mmHg 85%
01:00 +7°C° 0 mm 1 mps 707 mmHg 85%
02:00 +7°C° 0 mm 1 mps 707 mmHg 86%
03:00 +7°C° 0 mm 1 mps 707 mmHg 86%
04:00 +6°C° 0 mm 1 mps 707 mmHg 86%
05:00 +6°C° 0 mm 1 mps 707 mmHg 87%
06:00 +6°C° 0 mm 1 mps 707 mmHg 87%
07:00 +5°C° 0 mm 2 mps 707 mmHg 85%
08:00 +6°C° 0 mm 2 mps 708 mmHg 84%
09:00 +7°C° 0 mm 2 mps 708 mmHg 82%
10:00 +8°C° 0 mm 2 mps 708 mmHg 77%
11:00 +9°C° 0 mm 2 mps 708 mmHg 72%
12:00 +10°C° 0 mm 2 mps 708 mmHg 67%
13:00 +10°C° 0 mm 2 mps 708 mmHg 66%
14:00 +10°C° 0 mm 2 mps 708 mmHg 66%
15:00 +10°C° 0 mm 2 mps 708 mmHg 65%
16:00 +8°C° 0 mm 2 mps 708 mmHg 72%
17:00 +7°C° 0 mm 2 mps 708 mmHg 79%
18:00 +6°C° 0 mm 2 mps 708 mmHg 85%
19:00 +5°C° 0 mm 2 mps 709 mmHg 87%
20:00 +6°C° 0 mm 1 mps 709 mmHg 89%
21:00 +5°C° 0 mm 1 mps 709 mmHg 91%
22:00 +5°C° 0 mm 1 mps 709 mmHg 91%
23:00 +4°C° 0 mm 1 mps 710 mmHg 92%
Show more